WA8SIE Weather Reports


Display with metric or nautical units.
time (UTC)temp
F
wind
direction
speed
MPH
gust
MPH
rain 1hr
in
rain 24hr
in
rain mn
in
humidity
%
barometer
mb
20260505051011 58 128 0.0 0.0 0.00 0.00 0.00 78 1004.4
20260505050511 58 128 0.0 0.0 0.00 0.00 0.00 78 1004.4
20260505041012 59 128 1.0 0.0 0.00 0.00 0.00 77 1004.0
20260505040012 59 128 0.0 0.0 0.00 0.00 0.00 77 1004.0
20260505035011 59 128 0.0 0.0 0.00 0.00 0.00 76 1003.9
20260505034511 60 128 0.0 0.0 0.00 0.00 0.00 76 1003.9
20260505034011 60 128 0.0 0.0 0.00 0.00 0.00 76 1003.9
20260505033511 60 128 0.0 0.0 0.00 0.00 0.00 75 1003.9
20260505033010 60 129 0.0 0.0 0.00 0.00 0.00 75 1003.9
20260505032510 60 128 0.0 0.0 0.00 0.00 0.00 74 1003.9
20260505031512 61 128 0.0 0.0 0.00 0.00 0.00 73 1003.9
20260505030511 61 128 0.0 0.0 0.00 0.00 0.00 72 1004.0
20260505025510 62 128 0.0 0.0 0.00 0.00 0.00 71 1003.9
20260505025010 62 128 0.0 0.0 0.00 0.00 0.00 70 1003.9
20260505024510 62 128 0.0 0.0 0.00 0.00 0.00 70 1003.9
20260505024010 62 128 0.0 0.0 0.00 0.00 0.00 69 1003.9
20260505022510 63 128 0.0 0.0 0.00 0.00 0.00 68 1003.7
20260505022011 63 128 0.0 0.0 0.00 0.00 0.00 68 1003.7
20260505021012 63 205 0.0 0.0 0.00 0.00 0.00 67 1003.6
20260505020510 64 205 0.0 0.0 0.00 0.00 0.00 66 1003.6
20260505015010 64 205 0.0 0.0 0.00 0.00 0.00 64 1003.6
20260505014511 65 205 0.0 0.0 0.00 0.00 0.00 63 1003.6
20260505014011 65 205 0.0 0.0 0.00 0.00 0.00 62 1003.6
20260505013511 66 205 0.0 0.0 0.00 0.00 0.00 62 1003.6
20260505013012 66 205 0.0 0.0 0.00 0.00 0.00 61 1003.6
20260505012511 66 205 0.0 0.0 0.00 0.00 0.00 61 1003.5
20260505012011 66 205 0.0 0.0 0.00 0.00 0.00 60 1003.5
20260505011511 67 205 0.0 0.0 0.00 0.00 0.00 60 1003.5
20260505010513 68 205 0.0 0.0 0.00 0.00 0.00 58 1003.4
20260505010011 68 205 0.0 0.0 0.00 0.00 0.00 57 1003.4
20260505005511 69 205 0.0 0.0 0.00 0.00 0.00 56 1003.3
20260505004511 70 205 0.0 0.0 0.00 0.00 0.00 54 1003.3
20260505004013 71 205 0.0 0.0 0.00 0.00 0.00 52 1003.3
20260505003511 71 205 0.0 0.0 0.00 0.00 0.00 51 1003.3
20260505002511 73 205 0.0 0.0 0.00 0.00 0.00 47 1003.2
20260505002011 73 205 0.0 0.0 0.00 0.00 0.00 47 1003.2
20260505001511 73 205 0.0 0.0 0.00 0.00 0.00 46 1003.2
20260505001011 74 205 0.0 0.0 0.00 0.00 0.00 46 1003.6
20260505000511 74 205 0.0 0.0 0.00 0.00 0.00 46 1003.6
20260505000013 75 205 0.0 0.0 0.00 0.00 0.00 44 1003.6
20260504235511 75 200 0.0 0.0 0.00 0.00 0.00 44 1003.5
20260504235012 75 192 2.0 0.0 0.00 0.00 0.00 43 1003.5
20260504234011 75 197 0.0 0.0 0.00 0.00 0.00 44 1003.4
20260504233011 75 197 0.0 0.0 0.00 0.00 0.00 43 1003.4
20260504232511 75 197 0.0 0.0 0.00 0.00 0.00 43 1003.3
20260504231511 75 207 0.0 0.0 0.00 0.00 0.00 42 1003.3
20260504231011 75 252 0.0 0.0 0.00 0.00 0.00 43 1003.5
20260504230511 75 252 0.0 0.0 0.00 0.00 0.00 43 1003.5
20260504230011 75 195 0.0 0.0 0.00 0.00 0.00 43 1003.5
20260504225511 75 197 3.0 0.0 0.00 0.00 0.00 44 1003.6
20260504225011 76 201 0.0 0.0 0.00 0.00 0.00 44 1003.6
20260504224511 76 202 0.0 0.0 0.00 0.00 0.00 44 1003.6
20260504224011 76 201 0.0 0.0 0.00 0.00 0.00 44 1003.7
20260504223011 76 316 0.0 0.0 0.00 0.00 0.00 44 1003.7
20260504222011 76 191 3.0 0.0 0.00 0.00 0.00 44 1003.6
20260504221511 75 186 1.0 0.0 0.00 0.00 0.00 45 1003.6
20260504221011 76 203 0.0 0.0 0.00 0.00 0.00 45 1003.6
20260504220511 76 178 0.0 0.0 0.00 0.00 0.00 45 1003.6
20260504220011 76 224 4.0 0.0 0.00 0.00 0.00 46 1003.6
20260504215511 76 184 0.0 0.0 0.00 0.00 0.00 46 1003.8
20260504214511 75 210 3.0 0.0 0.00 0.00 0.00 46 1003.8
20260504214011 75 204 0.0 0.0 0.00 0.00 0.00 45 1004.1
20260504213512 75 189 0.0 0.0 0.00 0.00 0.00 47 1004.1
20260504213011 75 188 4.0 0.0 0.00 0.00 0.00 48 1004.1
20260504212511 75 199 0.0 0.0 0.00 0.00 0.00 46 1004.1
20260504211511 74 264 5.0 0.0 0.00 0.00 0.00 46 1004.1
20260504211012 74 193 4.0 0.0 0.00 0.00 0.00 46 1004.3
20260504210510 74 205 4.0 0.0 0.00 0.00 0.00 46 1004.3
20260504210011 74 195 0.0 0.0 0.00 0.00 0.00 46 1004.3
20260504205011 73 156 0.0 0.0 0.00 0.00 0.00 47 1004.5
20260504204510 73 200 4.0 0.0 0.00 0.00 0.00 46 1004.5
20260504204010 73 248 0.0 0.0 0.00 0.00 0.00 46 1004.6
20260504203510 72 184 6.0 0.0 0.00 0.00 0.00 46 1004.6
20260504203011 72 177 8.0 0.0 0.00 0.00 0.00 46 1004.6
20260504202511 72 195 0.0 0.0 0.00 0.00 0.00 46 1004.6
20260504202010 72 181 4.0 0.0 0.00 0.00 0.00 48 1004.6
20260504201512 72 226 0.0 0.0 0.00 0.00 0.00 49 1004.6
20260504201011 71 192 1.0 0.0 0.00 0.00 0.00 52 1004.6
20260504200511 71 202 7.0 0.0 0.00 0.00 0.00 51 1004.6
20260504200011 70 204 13.0 0.0 0.00 0.00 0.00 50 1004.6
20260504195011 69 188 1.0 0.0 0.00 0.00 0.00 54 1004.7
20260504194510 69 180 3.0 0.0 0.00 0.00 0.00 57 1004.7
20260504193511 69 205 7.0 0.0 0.00 0.00 0.00 56 1005.2
20260504193011 68 185 2.0 0.0 0.00 0.00 0.00 57 1005.2
20260504192010 67 198 3.0 0.0 0.00 0.00 0.00 60 1005.1
20260504191510 67 203 4.0 0.0 0.00 0.00 0.00 60 1005.1
20260504190511 70 213 2.0 0.0 0.00 0.00 0.00 53 1006.7
20260504190012 71 206 3.0 0.0 0.00 0.00 0.00 48 1006.7
20260504185510 72 238 4.0 0.0 0.00 0.00 0.00 47 1005.5
20260504185010 72 237 2.0 0.0 0.00 0.00 0.00 45 1005.5
20260504184510 73 207 0.0 0.0 0.00 0.00 0.00 45 1005.5
20260504184010 73 243 0.0 0.0 0.00 0.00 0.00 46 1005.5
20260504183510 72 212 0.0 0.0 0.00 0.00 0.00 46 1005.5
20260504183011 72 200 0.0 0.0 0.00 0.00 0.00 46 1005.5
20260504182011 74 204 5.0 0.0 0.00 0.00 0.00 44 1005.1
20260504181512 73 226 0.0 0.0 0.00 0.00 0.00 46 1005.1
20260504181012 73 210 1.0 0.0 0.00 0.00 0.00 46 1005.5
20260504180510 72 187 2.0 0.0 0.00 0.00 0.00 46 1005.5
20260504180010 72 192 8.0 0.0 0.00 0.00 0.00 47 1005.5
20260504175512 71 215 0.0 0.0 0.00 0.00 0.00 48 1005.6
20260504175010 71 253 3.0 0.0 0.00 0.00 0.00
20260504174010 70 214 2.0 0.0 0.00 0.00 0.00 49 1005.9
20260504173510 70 222 5.0 0.0 0.00 0.00 0.00 50 1005.9
20260504173010 70 203 5.0 0.0 0.00 0.00 0.00 51 1005.9
20260504172513 70 189 9.0 0.0 0.00 0.00 0.00 51 1006.3
20260504172010 68 212 4.0 0.0 0.00 0.00 0.00 52 1006.3
20260504171511 68 197 5.0 0.0 0.00 0.00 0.00 51 1006.3
20260504171011 68 202 5.0 0.0 0.00 0.00 0.00 51 1006.6
20260504170511 68 205 2.0 0.0 0.00 0.00 0.00 53 1006.6
20260504150513 59 163 0.0 0.0 0.00 0.00 0.00 66 1008.5
20260504141011 59 206 1.0 0.0 0.00 0.00 0.00 59 1009.0
20260504140511 59 195 0.0 0.0 0.00 0.00 0.00 59 1009.0
20260504110510 43 148 0.0 0.0 0.00 0.00 0.00 92 1007.6
20260504081510 47 148 0.0 0.0 0.00 0.00 0.00 84 1009.2
20260504081011 47 148 0.0 0.0 0.00 0.00 0.00 84 1009.2